Searcy, AR (72149)

7:47 PM CDT on August 03, 2015 (GMT -0500)
Honey Hill Road | | Change Station
CLOSE
Current Station
Personal Weather Station
Location: Searcy, AR
Elevation: 390 ft
Nearby Weather Stations
Active Advisory: Flood Warning

Elev 390 ft 35.22 °N, 91.80 °W | Updated 3 seconds ago

Clear
Clear
86.8 °F
Feels Like 94 °F
N
0.0
Wind Variable Wind from South
Gusts 1.0 mph

Today
High -- | Low -- °F
--% Chance of Precip.
Yesterday
High -- | Low -- °F
Precip. -- in
6:17 AM 8:08 PM
Waning Gibbous, 82% visible
Pressure 29.92 in
Visibility 10.0 miles
Clouds Clear
Heat Index 94 °F
Dew Point 73 °F
Humidity 63%
Rainfall 0.00 in
Snow Depth Not available.
UV 1 out of 12
Pollen 5.20 out of 12
Air Quality Not available.
Flu Activity Not available.
METAR KSRC 032356Z AUTO 22003KT 10SM CLR 32/22 A2991 RMK AO2 SLP130 T03170222 10367 20317 55003 TSNO

More Conditions Fewer Conditions

Pressure 29.92 in
Visibility 10.0 miles
Clouds Clear
Heat Index 94 °F
Dew Point 73 °F
Humidity 63%
Rainfall 0.00 in
Snow Depth Not available.
UV 1 out of 12
Pollen 5.20 out of 12
Air Quality Not available.
Flu Activity Not available.
METAR KSRC 032356Z AUTO 22003KT 10SM CLR 32/22 A2991 RMK AO2 SLP130 T03170222 10367 20317 55003 TSNO

More Conditions Fewer Conditions

10-Day Weather Forecast

×

Almanac

Astronomy

Aug. 03, 2015 Rise Set
Actual Time
Civil Twilight
Nautical Twilight
Astronomical Twilight
Moon
Length of Visible Light
Length of Day
Tomorrow will be .
, % of the Moon is Illuminated

Today's Extremes

State Highs State Lows

Community

WunderPhotos

Upload Photos

1,843,797 photos uploaded!

WunderBlogs® & News

Nearby

Air Quality

  Air Quality AQ Index Pollutant
Not available.

Snow Depth

Station Depth Elevation

Earthquake Activity

City Distance Mag. Time & Date
Minimum magnitude displayed is 2.5.

Coastal Water Temperatures

Place Temperature

Stations

Nearby Weather Stations

Station Location Temp. Windchill Dew Point Humidity Wind Precip. Elev Updated Type
                   
Flood Warning
Statement as of 10:21 AM CDT on August 03, 2015

The Flood Warning continues for
the White River at Augusta.
* Until further notice... or until the warning is cancelled.
* At 10:00 am Monday the stage was 26.2 feet.
* Minor flooding is occurring and minor flooding is forecast.
* Flood stage is 26.0 feet.
* Forecast... the river will continue rising to near 26.8 feet by
Saturday morning.
* Impact... at 26.0 feet... farm ground along the river in white and
Woodruff counties begin to flood. Seasonal agricultural impacts.



             Fld observed forecast 7 am
location stg stg day time Tue Wed Thu Fri Sat

Lower White River
Augusta 26 26.2 Mon 10 am 26.3 26.4 26.5 26.6 26.8




Lat... Lon 3514 9152 3525 9146 3537 9150 3534 9136
3521 9133 3515 9137